Weather History for Cecil Field, FL

Change the Weather History Date:

Sunday, February 17, 2013

  Actual Average (KJAX) Record (KJAX)
Temperature  
Mean Temperature 38 °F 57 °F  
Max Temperature 51 °F 69 °F 83 °F (1956)
Min Temperature 24 °F 45 °F 23 °F (2007)
Degree Days  
Heating Degree Days 28 9  
Month to date heating degree days 170  
Since 1 July heating degree days 1046  
Cooling Degree Days 0 1  
Month to date cooling degree days 12  
Year to date cooling degree days 23  
Moisture  
Dew Point 19 °F    
Average Humidity 63    
Maximum Humidity 93    
Minimum Humidity 18    
Precipitation  
Precipitation 0.00 in 0.12 in 2.44 in (1998)
Month to date precipitation 1.85  
Year to date precipitation 5.15  
Snow  
Snow 0.00 in 0.00 in 0.00 in (2002)
Month to date snowfall 0.0  
Since 1 July snowfall T  
Snow Depth -    
Sea Level Pressure  
Sea Level Pressure 30.28 in    
Wind  
Wind Speed 5 mph (WNW)    
Max Wind Speed 15 mph    
Max Gust Speed 17 mph    
Visibility 10 miles    
Events      
T = Trace of Precipitation, MM = Missing Value Source: NWS Daily Summary

Daily Weather History Graph

Daily Weather History Graph

Search for Another Location

Airport:

Trip Planner

Search our weather history database for the weather conditions in past years. The results will help you decide how hot, cold, wet, or windy it might be!

Date:

Astronomy

Feb. 17, 2013 Rise Set
Actual Time 7:05 AM EST 6:17 PM EST
Civil Twilight 6:41 AM EST 6:42 PM EST
Nautical Twilight 6:13 AM EST 7:10 PM EST
Astronomical Twilight 5:45 AM EST 7:38 PM EST
Moon 11:31 AM EST (2/17) 12:39 AM EST (2/17)
Length of Visible Light 12h 01m
Length of Day
11h 12m
Waxing Crescent, 49% of the Moon is Illuminated
Feb 17
Waxing Crescent
Feb 17
First Quarter
Feb 25
Full
Mar 4
Last Quarter
Mar 11
New

Hourly Weather History & Observations

Time (EST) Temp. Windchill Dew Point Humidity Pressure Visibility Wind Dir Wind Speed Gust Speed Precip Events Conditions
12:15 AM 37.4 °F 30.3 °F 17.6 °F 45% 30.17 in 10.0 mi WNW 10.4 mph - N/A   Clear
12:35 AM 37.4 °F 31.4 °F 17.6 °F 45% 30.18 in 10.0 mi WNW 8.1 mph - N/A   Clear
12:55 AM 35.6 °F 29.9 °F 17.6 °F 48% 30.19 in 10.0 mi WNW 6.9 mph - N/A   Clear
1:15 AM 35.6 °F 30.7 °F 17.6 °F 48% 30.19 in 10.0 mi WNW 5.8 mph - N/A   Clear
1:35 AM 33.8 °F 28.6 °F 17.6 °F 52% 30.19 in 10.0 mi West 5.8 mph - N/A   Clear
1:55 AM 32.0 °F 27.5 °F 19.4 °F 60% 30.19 in 10.0 mi West 4.6 mph - N/A   Clear
2:15 AM 32.0 °F 27.5 °F 19.4 °F 60% 30.19 in 10.0 mi SW 4.6 mph - N/A   Clear
2:35 AM 30.2 °F 26.7 °F 19.4 °F 64% 30.19 in 10.0 mi WSW 3.5 mph - N/A   Clear
2:55 AM 28.4 °F 24.6 °F 23.0 °F 80% 30.20 in 10.0 mi WSW 3.5 mph - N/A   Clear
3:15 AM 28.4 °F 24.6 °F 19.4 °F 69% 30.20 in 10.0 mi West 3.5 mph - N/A   Clear
3:35 AM 28.4 °F - 23.0 °F 80% 30.20 in 10.0 mi Calm Calm - N/A   Clear
3:55 AM 26.6 °F 22.6 °F 19.4 °F 74% 30.21 in 10.0 mi WSW 3.5 mph - N/A   Clear
4:15 AM 26.6 °F 22.6 °F 19.4 °F 74% 30.22 in 10.0 mi WSW 3.5 mph - N/A   Clear
4:35 AM 30.2 °F 23.4 °F 19.4 °F 64% 30.22 in 10.0 mi West 6.9 mph - N/A   Clear
4:55 AM 28.4 °F 23.3 °F 19.4 °F 69% 30.23 in 10.0 mi West 4.6 mph - N/A   Clear
5:15 AM 26.6 °F - 19.4 °F 74% 30.24 in 10.0 mi Calm Calm - N/A   Clear
5:35 AM 24.8 °F - 23.0 °F 93% 30.25 in 10.0 mi Calm Calm - N/A   Clear
5:55 AM 24.8 °F - 19.4 °F 80% 30.25 in 10.0 mi Calm Calm - N/A   Clear
6:15 AM 24.8 °F - 21.2 °F 86% 30.27 in 10.0 mi Calm Calm - N/A   Clear
6:35 AM 24.8 °F - 21.2 °F 86% 30.27 in 10.0 mi Calm Calm - N/A   Clear
6:50 AM 24.8 °F 17.9 °F 19.4 °F 80% 30.28 in 10.0 mi West 5.8 mph - N/A   Clear
8:50 AM 35.6 °F 30.7 °F 19.4 °F 52% 30.32 in 10.0 mi WNW 5.8 mph - N/A   Clear
9:50 AM 39.2 °F 33.0 °F 10.4 °F 31% 30.33 in 10.0 mi North 9.2 mph - N/A   Clear
10:55 AM 42.8 °F 36.6 °F 8.6 °F 25% 30.34 in 10.0 mi North 11.5 mph - N/A   Clear
11:50 AM 46.4 °F 41.9 °F 6.8 °F 20% 30.34 in 10.0 mi North 9.2 mph - N/A   Clear
1:50 PM 50.0 °F - 8.6 °F 19% 30.30 in 10.0 mi North 11.5 mph 17.3 mph N/A   Clear
2:50 PM 50.0 °F - 8.6 °F 19% 30.28 in 10.0 mi WNW 15.0 mph - N/A   Clear
3:50 PM 51.8 °F - 8.6 °F 18% 30.27 in 10.0 mi WNW 11.5 mph - N/A   Clear
4:50 PM 51.8 °F - 8.6 °F 18% 30.28 in 10.0 mi WNW 9.2 mph - N/A   Clear
5:50 PM 48.2 °F - 8.6 °F 20% 30.28 in 10.0 mi WNW 8.1 mph - N/A   Clear
6:50 PM 39.2 °F - 23.0 °F 52% 30.29 in 10.0 mi Calm Calm - N/A   Clear
7:50 PM 32.0 °F - 23.0 °F 69% 30.31 in 10.0 mi Calm Calm - N/A   Clear
8:15 PM 30.2 °F - 23.0 °F 75% 30.33 in 10.0 mi Calm Calm - N/A   Clear
8:35 PM 28.4 °F - 21.2 °F 74% 30.33 in 10.0 mi Calm Calm - N/A   Clear
8:55 PM 28.4 °F - 23.0 °F 80% 30.34 in 10.0 mi Calm Calm - N/A   Clear
9:15 PM 26.6 °F - 23.0 °F 86% 30.35 in 10.0 mi Calm Calm - N/A   Clear
9:35 PM 26.6 °F - 23.0 °F 86% 30.35 in 10.0 mi Calm Calm - N/A   Clear
9:55 PM 26.6 °F - 23.0 °F 86% 30.36 in 10.0 mi Calm Calm - N/A   Clear
10:15 PM 24.8 °F - 21.2 °F 86% 30.37 in 10.0 mi Calm Calm - N/A   Clear
10:35 PM 24.8 °F - 23.0 °F 93% 30.38 in 10.0 mi Calm Calm - N/A   Clear
10:55 PM 26.6 °F - 23.0 °F 86% 30.38 in 10.0 mi Calm Calm - N/A   Clear
11:15 PM 24.8 °F - 21.2 °F 86% 30.38 in 10.0 mi Calm Calm - N/A   Clear
11:35 PM 24.8 °F - 21.2 °F 86% 30.38 in 10.0 mi Calm Calm - N/A   Clear
11:55 PM 24.8 °F - 21.2 °F 86% 30.38 in 10.0 mi Calm Calm - N/A   Clear